When you browse on this site, cookies collect data to enhance your experience and personalize the content and advertising you see.
Visit our Privacy Policy to learn more. By continuing to use the site, you agree to this use of cookies and data.
  • In Denmark
  • List of Countries
  • For 7 days
  • Water Temperature
  • Weather Map
  • Weather Widgets
  • user-avatar
    Login

    Hourly Weather Cordoba

    Today, 29 May, Friday

    Time Temperature Precipitation Wind Pressure Humidity
    00:00 +21°C° 0 mm 1 mps 754 mmHg 61%
    01:00 +21°C° 0 mm 1 mps 753 mmHg 63%
    02:00 +20°C° 0 mm 1 mps 753 mmHg 66%
    03:00 +18°C° 0 mm 0 mps 753 mmHg 68%
    04:00 +20°C° 0 mm 1 mps 753 mmHg 67%
    05:00 +20°C° 0 mm 1 mps 753 mmHg 66%
    06:00 +21°C° 0 mm 1 mps 753 mmHg 63%
    07:00 +24°C° 0 mm 1 mps 753 mmHg 54%
    08:00 +26°C° 0 mm 2 mps 753 mmHg 45%
    09:00 +29°C° 0 mm 2 mps 753 mmHg 37%
    10:00 +30°C° 0 mm 2 mps 752 mmHg 32%
    11:00 +32°C° 0 mm 2 mps 752 mmHg 28%
    12:00 +34°C° 0 mm 1 mps 751 mmHg 24%
    13:00 +35°C° 0 mm 1 mps 751 mmHg 22%
    14:00 +35°C° 0 mm 1 mps 750 mmHg 21%
    15:00 +36°C° 0 mm 1 mps 750 mmHg 20%
    16:00 +36°C° 0 mm 2 mps 750 mmHg 22%
    17:00 +35°C° 0 mm 2 mps 749 mmHg 25%
    18:00 +34°C° 0 mm 2 mps 749 mmHg 27%
    19:00 +30°C° 0 mm 2 mps 749 mmHg 32%
    20:00 +28°C° 0 mm 2 mps 750 mmHg 36%
    21:00 +25°C° 0 mm 1 mps 750 mmHg 40%
    22:00 +24°C° 0 mm 2 mps 750 mmHg 42%
    23:00 +24°C° 0 mm 2 mps 750 mmHg 44%

    Tomorrow, 30 May, Saturday

    Time Temperature Precipitation Wind Pressure Humidity
    00:00 +23°C° 0 mm 2 mps 750 mmHg 46%
    01:00 +21°C° 0 mm 2 mps 750 mmHg 49%
    02:00 +21°C° 0 mm 1 mps 750 mmHg 52%
    03:00 +20°C° 0 mm 1 mps 750 mmHg 55%
    04:00 +20°C° 0 mm 1 mps 750 mmHg 55%
    05:00 +21°C° 0 mm 1 mps 750 mmHg 55%
    06:00 +19°C° 0 mm 0 mps 750 mmHg 56%
    07:00 +24°C° 0 mm 1 mps 750 mmHg 48%
    08:00 +26°C° 0 mm 1 mps 751 mmHg 40%
    09:00 +29°C° 0 mm 2 mps 751 mmHg 32%
    10:00 +31°C° 0 mm 2 mps 750 mmHg 30%
    11:00 +33°C° 0 mm 1 mps 750 mmHg 27%
    12:00 +35°C° 0 mm 1 mps 750 mmHg 24%
    13:00 +35°C° 0 mm 1 mps 749 mmHg 23%
    14:00 +37°C° 0 mm 2 mps 749 mmHg 21%
    15:00 +37°C° 0 mm 2 mps 749 mmHg 19%
    16:00 +36°C° 0 mm 3 mps 748 mmHg 22%
    17:00 +35°C° 0 mm 3 mps 748 mmHg 25%
    18:00 +33°C° 0 mm 4 mps 748 mmHg 27%
    19:00 +30°C° 0 mm 3 mps 748 mmHg 31%
    20:00 +27°C° 0 mm 3 mps 748 mmHg 35%
    21:00 +24°C° 0 mm 2 mps 749 mmHg 39%
    22:00 +24°C° 0 mm 2 mps 749 mmHg 40%
    23:00 +23°C° 0 mm 1 mps 749 mmHg 41%

    Day after tomorrow, 31 May, Sunday

    Time Temperature Precipitation Wind Pressure Humidity
    00:00 +22°C° 0 mm 1 mps 749 mmHg 41%
    01:00 +22°C° 0 mm 1 mps 749 mmHg 43%
    02:00 +21°C° 0 mm 1 mps 749 mmHg 44%
    03:00 +21°C° 0 mm 1 mps 749 mmHg 45%
    04:00 +21°C° 0 mm 1 mps 749 mmHg 45%
    05:00 +21°C° 0 mm 1 mps 749 mmHg 46%
    06:00 +20°C° 0 mm 0 mps 749 mmHg 46%
    07:00 +24°C° 0 mm 1 mps 749 mmHg 42%
    08:00 +26°C° 0 mm 1 mps 749 mmHg 38%
    09:00 +28°C° 0 mm 1 mps 750 mmHg 34%
    10:00 +28°C° 0 mm 1 mps 750 mmHg 32%
    11:00 +29°C° 0 mm 1 mps 750 mmHg 30%
    12:00 +30°C° 0 mm 2 mps 750 mmHg 28%
    13:00 +31°C° 0 mm 2 mps 750 mmHg 27%
    14:00 +32°C° 0 mm 2 mps 749 mmHg 26%
    15:00 +32°C° 0 mm 2 mps 749 mmHg 25%
    16:00 +33°C° 0 mm 3 mps 749 mmHg 26%
    17:00 +33°C° 0 mm 3 mps 749 mmHg 27%
    18:00 +32°C° 0 mm 4 mps 748 mmHg 28%
    19:00 +29°C° 0 mm 3 mps 749 mmHg 31%
    20:00 +26°C° 0 mm 3 mps 749 mmHg 34%
    21:00 +24°C° 0 mm 2 mps 750 mmHg 37%
    22:00 +23°C° 0 mm 1 mps 750 mmHg 41%
    23:00 +22°C° 0 mm 1 mps 750 mmHg 45%

    1 June, Monday

    Time Temperature Precipitation Wind Pressure Humidity
    00:00 +22°C° 0 mm 1 mps 750 mmHg 49%
    01:00 +21°C° 0 mm 1 mps 750 mmHg 51%
    02:00 +19°C° 0 mm 0 mps 750 mmHg 52%
    03:00 +19°C° 0 mm 0 mps 750 mmHg 53%
    04:00 +19°C° 0 mm 0 mps 750 mmHg 53%
    05:00 +21°C° 0 mm 1 mps 750 mmHg 52%
    06:00 +21°C° 0 mm 1 mps 750 mmHg 51%
    07:00 +23°C° 0 mm 1 mps 750 mmHg 44%
    08:00 +26°C° 0 mm 1 mps 750 mmHg 37%
    09:00 +29°C° 0 mm 1 mps 751 mmHg 30%
    10:00 +30°C° 0 mm 2 mps 751 mmHg 28%
    11:00 +33°C° 0 mm 3 mps 751 mmHg 25%
    12:00 +34°C° 0 mm 3 mps 751 mmHg 23%
    13:00 +35°C° 0 mm 4 mps 750 mmHg 23%
    14:00 +35°C° 0 mm 4 mps 750 mmHg 23%
    15:00 +35°C° 0 mm 4 mps 750 mmHg 24%
    16:00 +34°C° 0 mm 4 mps 750 mmHg 26%
    17:00 +34°C° 0 mm 3 mps 750 mmHg 28%
    18:00 +32°C° 0 mm 2 mps 749 mmHg 30%
    19:00 +30°C° 0 mm 2 mps 750 mmHg 36%
    20:00 +28°C° 0 mm 2 mps 750 mmHg 43%
    21:00 +25°C° 0 mm 1 mps 751 mmHg 49%
    22:00 +24°C° 0 mm 1 mps 751 mmHg 53%
    23:00 +24°C° 0 mm 1 mps 751 mmHg 57%

    2 June, Tuesday

    Time Temperature Precipitation Wind Pressure Humidity
    00:00 +23°C° 0 mm 1 mps 751 mmHg 61%
    01:00 +22°C° 0 mm 1 mps 751 mmHg 64%
    02:00 +19°C° 0 mm 0 mps 751 mmHg 67%
    03:00 +19°C° 0 mm 0 mps 750 mmHg 70%
    04:00 +19°C° 0 mm 0 mps 751 mmHg 68%
    05:00 +19°C° 0 mm 0 mps 751 mmHg 67%
    06:00 +20°C° 0 mm 0 mps 751 mmHg 66%
    07:00 +22°C° 0 mm 0 mps 751 mmHg 55%
    08:00 +27°C° 0 mm 1 mps 751 mmHg 45%
    09:00 +30°C° 0 mm 1 mps 751 mmHg 34%
    10:00 +31°C° 0 mm 2 mps 751 mmHg 29%
    11:00 +34°C° 0 mm 2 mps 751 mmHg 25%
    12:00 +35°C° 0 mm 3 mps 751 mmHg 20%
    13:00 +36°C° 0 mm 3 mps 750 mmHg 20%
    14:00 +36°C° 0 mm 4 mps 750 mmHg 20%
    15:00 +37°C° 0 mm 4 mps 749 mmHg 19%
    16:00 +36°C° 0 mm 4 mps 749 mmHg 22%
    17:00 +35°C° 0 mm 4 mps 749 mmHg 24%
    18:00 +34°C° 0 mm 4 mps 749 mmHg 26%
    19:00 +30°C° 0 mm 4 mps 749 mmHg 36%
    20:00 +28°C° 0 mm 3 mps 749 mmHg 45%
    21:00 +25°C° 0 mm 3 mps 749 mmHg 55%
    22:00 +24°C° 0 mm 3 mps 750 mmHg 61%
    23:00 +21°C° 0 mm 3 mps 750 mmHg 68%

    3 June, Wednesday

    Time Temperature Precipitation Wind Pressure Humidity
    00:00 +20°C° 0 mm 3 mps 750 mmHg 74%
    01:00 +19°C° 0 mm 2 mps 750 mmHg 80%
    02:00 +18°C° 0 mm 2 mps 749 mmHg 85%
    03:00 +18°C° 0 mm 1 mps 749 mmHg 90%
    04:00 +18°C° 0 mm 1 mps 749 mmHg 90%
    05:00 +18°C° 0 mm 1 mps 749 mmHg 90%
    06:00 +18°C° 0 mm 1 mps 749 mmHg 90%
    07:00 +19°C° 0 mm 2 mps 749 mmHg 83%
    08:00 +20°C° 0 mm 3 mps 749 mmHg 76%
    09:00 +22°C° 0 mm 4 mps 749 mmHg 68%
    10:00 +23°C° 0 mm 4 mps 749 mmHg 61%
    11:00 +26°C° 0 mm 4 mps 749 mmHg 54%
    12:00 +27°C° 0 mm 5 mps 748 mmHg 47%
    13:00 +28°C° 0 mm 5 mps 748 mmHg 43%
    14:00 +29°C° 0 mm 5 mps 747 mmHg 39%
    15:00 +32°C° 0 mm 5 mps 746 mmHg 34%
    16:00 +30°C° 0 mm 5 mps 746 mmHg 36%
    17:00 +30°C° 0 mm 6 mps 746 mmHg 38%
    18:00 +29°C° 0 mm 6 mps 746 mmHg 39%
    19:00 +27°C° 0 mm 6 mps 746 mmHg 50%
    20:00 +25°C° 0 mm 5 mps 746 mmHg 60%
    21:00 +21°C° 0 mm 5 mps 747 mmHg 71%
    22:00 +20°C° 0 mm 4 mps 747 mmHg 77%
    23:00 +19°C° 0 mm 3 mps 747 mmHg 83%
    Show more